Home   Weather   Alsdorf   Past weeks

Flag for Germany Past Weather in Alsdorf, North Rhine-Westphalia, Germany — Yesterday and Last 2 Weeks

Now
55 °F

Clear.


Feels Like: 55 °F
Forecast: 49 / 57 °F
Wind: 3 mph from South

Location: Maastricht Airport Zuid Limburg

Current Time: Oct 1, 2016 at 10:48:02 AM

Latest Report: Oct 1, 2016 at 9:55 AM


Visibility: N/A

Pressure: 29.80 "Hg

Humidity: 82%

Dew Point: 50 °F

Location of AlsdorfLocation

Past Weather in Alsdorf — Graph

°F

Alsdorf Temperature Yesterday

Maximum temperature yesterday: 64 °F (at 4:25 PM)
Minimum temperature yesterday: 54 °F (at 8:55 PM)
Average temperature yesterday: 58 °F

High & Low Weather Summary for the Past Weeks

 TemperatureHumidityPressure
High79 °F (Sep 25, 2:25 PM)100% (Sep 18, 7:25 AM)30.33 "Hg (Sep 18, 7:25 AM)
Low46 °F (Sep 26, 4:25 AM)34% (Sep 24, 3:55 PM)29.80 "Hg (Oct 1, 5:55 AM)
Average61 °F72%30.11 "Hg
* Reported Sep 16 9:25 AM — Oct 1 9:25 AM, Alsdorf, Weather by CustomWeather, © 2016

Note: Actual official high and low records may vary slightly from our data, if they occured in-between our weather recording intervals... More about our weather records

Advertising

Alsdorf Weather History for the Previous 24 Hours

Scroll right to see more
 ConditionsComfort  
Time TempWeatherWind HumidityBarometerVisibility
9:25 AM
Sat, Oct 1
55 °FClear.3 mph82%29.80 "HgN/A
8:55 AM55 °FClear.3 mph82%29.80 "HgN/A
8:25 AM54 °FClear.3 mph88%29.80 "HgN/A
7:55 AM54 °FClear.3 mph88%29.80 "HgN/A
7:25 AM54 °FClear.3 mph88%29.80 "HgN/A
6:55 AM54 °FClear.3 mph88%29.80 "HgN/A
6:25 AM54 °FClear.3 mph88%29.83 "HgN/A
5:55 AM54 °FClear.3 mph88%29.80 "HgN/A
5:25 AM54 °FClear.2 mph94%29.83 "HgN/A
4:55 AM54 °FClear.2 mph94%29.83 "HgN/A
4:25 AM55 °FPassing clouds.2 mph82%29.83 "HgN/A
3:55 AM55 °FClear.3 mph82%29.86 "HgN/A
3:25 AM55 °FClear.3 mph82%29.86 "HgN/A
2:55 AM55 °FClear.5 mph82%29.86 "HgN/A
2:25 AM55 °FClear.3 mph82%29.89 "HgN/A
1:55 AM55 °FClear.3 mph82%29.89 "HgN/A
1:25 AM55 °FClear.2 mph82%29.89 "HgN/A
12:55 AM55 °FLight rain. Clear.6 mph82%29.89 "HgN/A
12:25 AM55 °FLight rain. Passing clouds.5 mph82%29.92 "HgN/A
11:55 PM
Fri, Sep 30
55 °FClear.5 mph77%29.92 "HgN/A
11:25 PM55 °FClear.6 mph77%29.92 "HgN/A
10:55 PM55 °FClear.7 mph77%29.95 "HgN/A
10:25 PM55 °FClear.5 mph77%29.95 "HgN/A
9:55 PM57 °FClear.5 mph77%29.95 "HgN/A
9:25 PM57 °FClear.5 mph77%29.95 "HgN/A
8:55 PM54 °FClear.5 mph88%29.95 "HgN/A
8:25 PM55 °FClear.3 mph77%29.95 "HgN/A
7:55 PM55 °FClear.3 mph77%29.95 "HgN/A
7:25 PM57 °FPassing clouds.3 mph72%29.95 "HgN/A
6:55 PM59 °FCool.5 mph68%29.95 "HgN/A
6:25 PM63 °FClear.10 mph59%29.95 "HgN/A
5:55 PM61 °FClear.7 mph63%29.95 "HgN/A
5:25 PM63 °FClear.9 mph59%29.95 "HgN/A
4:55 PM63 °FClear.13 mph59%29.95 "HgN/A
4:25 PM64 °FMild.12 mph56%29.98 "HgN/A
3:55 PM61 °FClear.9 mph63%29.98 "HgN/A
3:25 PM63 °FScattered clouds.10 mph56%29.98 "HgN/A
2:55 PM63 °FPassing clouds.13 mph64%29.98 "HgN/A
2:25 PM63 °FBroken clouds.12 mph68%29.98 "HgN/A
1:55 PM63 °FBroken clouds.10 mph68%29.98 "HgN/A
1:25 PM61 °FPassing clouds.13 mph72%29.98 "HgN/A
12:55 PM61 °FBroken clouds.12 mph72%29.98 "HgN/A
12:25 PM59 °FBroken clouds.13 mph77%29.98 "HgN/A
11:55 AM59 °FBroken clouds.12 mph82%29.98 "HgN/A
11:25 AM59 °FPartly sunny.12 mph82%29.98 "HgN/A
10:55 AM59 °FMore clouds than sun.10 mph88%29.98 "HgN/A
10:25 AM57 °FMostly cloudy.12 mph88%29.98 "HgN/A
Weather by CustomWeather, © 2016

See weather overviewHow to use our weather pages